Location: Unnamed
(48.2382°N, 16.3826°E)
Time: 07:48:43
(UTC+02:00)

Falcon 9 debris - Pass Details

Date: 18 August 2020
Orbit: 426 x 434 km, 53.0° (Epoch: 21 September)

Event Time Altitude Azimuth Distance (km) Brightness Sun altitude
Rises 21:08:46 0° 285° (WNW) 2,408 ? -10.7°
Reaches altitude 10° 21:11:00 10° 294° (WNW) 1,541 ? -11.0°
Maximum altitude 21:14:13 36° 3° (N) 712 ? -11.5°
Drops below altitude 10° 21:17:27 10° 72° (ENE) 1,543 ? -11.9°
Enters shadow 21:17:45 - 73° (ENE) 1,656 ? -11.9°
